Location: Saratoga Springs
(43.0831°N, 73.7850°W)
Time: 14:07:02
(UTC-04:00)

Courier 1B Rocket - Visible Passes

Search period start: 23 April 2024 00:00
Search period end: 03 May 2024 00:00
Orbit: 920 x 1201 km, 28.2° (Epoch: 22 April)

Date Brightness Start Highest point End Pass type
(mag) Time Alt. Az. Time Alt. Az. Time Alt. Az.
23 Apr 6.7 03:55:46 19° S 03:57:21 20° SSE 04:02:31 10° ESE visible
24 Apr 7.1 02:58:10 16° SE 02:58:10 16° SE 03:00:59 10° SE visible
24 Apr 6.5 04:44:30 15° SW 04:49:00 25° S 04:54:45 10° SE visible
25 Apr 6.5 03:46:52 23° S 03:47:58 23° S 03:53:41 10° ESE visible
26 Apr 6.9 02:49:17 18° SE 02:49:17 18° SE 02:52:23 10° ESE visible
26 Apr 6.5 04:35:37 17° SW 04:39:39 26° S 04:45:35 10° SE visible
27 Apr 6.4 03:38:02 25° S 03:38:35 26° S 03:44:36 10° ESE visible
28 Apr 6.9 02:40:29 19° SE 02:40:29 19° SE 02:43:26 10° ESE visible
28 Apr 6.4 04:26:50 19° SW 04:30:16 25° S 04:36:13 10° SE visible
29 Apr 6.4 03:29:20 26° S 03:29:20 26° S 03:35:22 10° SE visible
29 Apr 6.7 05:16:32 10° WSW 05:21:53 20° SSW 05:27:05 10° SSE visible
30 Apr 7.0 02:31:55 18° SE 02:31:55 18° SE 02:34:17 10° ESE visible
30 Apr 6.5 04:18:16 20° SW 04:20:52 23° S 04:26:40 10° SE visible
01 May 6.5 03:20:56 25° S 03:20:56 25° S 03:25:56 10° SE visible
01 May 6.8 05:07:50 10° WSW 05:12:26 17° SSW 05:16:58 10° SSE visible
02 May 7.2 02:23:43 14° SE 02:23:43 14° SE 02:24:58 10° SE visible
02 May 6.5 04:10:05 20° SSW 04:11:26 21° SSW 04:16:50 10° SSE visible
